TimeCST,TemperatureF,Dew PointF,Humidity,Sea Level PressureIn,VisibilityMPH,Wind Direction,Wind SpeedMPH,Gust SpeedMPH,PrecipitationIn,Events,Conditions,WindDirDegrees,DateUTC
12:51 AM,27.0,19.0,72,30.53,10.0,Calm,Calm,-,N/A,,Clear,0,2013-01-18 06:51:00
1:51 AM,26.1,19.0,75,30.53,10.0,Calm,Calm,-,N/A,,Clear,0,2013-01-18 07:51:00
2:51 AM,24.1,18.0,77,30.53,10.0,Calm,Calm,-,N/A,,Clear,0,2013-01-18 08:51:00
3:51 AM,25.0,19.0,78,30.52,10.0,Calm,Calm,-,N/A,,Clear,0,2013-01-18 09:51:00
4:51 AM,27.0,18.0,69,30.51,10.0,SSW,6.9,-,N/A,,Clear,210,2013-01-18 10:51:00
5:51 AM,30.0,18.0,61,30.50,10.0,South,4.6,-,N/A,,Clear,190,2013-01-18 11:51:00
6:51 AM,30.0,18.0,61,30.50,10.0,South,4.6,-,N/A,,Clear,190,2013-01-18 12:51:00
7:51 AM,30.2,19.4,64,30.46,10.0,SSW,8.1,-,N/A,,Clear,200,2013-01-18 13:51:00
8:51 AM,35.1,19.9,54,30.48,10.0,South,5.8,-,N/A,,Clear,190,2013-01-18 14:51:00
9:51 AM,39.0,21.0,49,30.47,10.0,South,15.0,-,N/A,,Clear,190,2013-01-18 15:51:00
10:51 AM,44.1,21.9,42,30.43,10.0,South,10.4,-,N/A,,Partly Cloudy,190,2013-01-18 16:51:00
11:51 AM,46.9,23.0,39,30.38,10.0,SSW,15.0,-,N/A,,Partly Cloudy,210,2013-01-18 17:51:00
12:51 PM,50.0,23.0,35,30.32,10.0,South,11.5,-,N/A,,Partly Cloudy,190,2013-01-18 18:51:00
1:51 PM,53.1,21.9,30,30.28,10.0,South,13.8,-,N/A,,Partly Cloudy,190,2013-01-18 19:51:00
2:51 PM,55.0,21.0,27,30.24,10.0,SSW,18.4,23.0,N/A,,Partly Cloudy,200,2013-01-18 20:51:00
3:51 PM,55.0,21.0,27,30.22,10.0,South,13.8,-,N/A,,Partly Cloudy,180,2013-01-18 21:51:00
4:51 PM,53.1,21.9,30,30.21,10.0,South,12.7,-,N/A,,Partly Cloudy,170,2013-01-18 22:51:00
5:51 PM,51.1,21.0,31,30.20,10.0,South,12.7,21.9,N/A,,Partly Cloudy,180,2013-01-18 23:51:00
6:51 PM,50.0,21.0,32,30.20,10.0,South,13.8,-,N/A,,Clear,180,2013-01-19 00:51:00
7:51 PM,46.9,21.9,37,30.19,10.0,South,9.2,-,N/A,,Clear,170,2013-01-19 01:51:00
8:51 PM,46.0,24.1,42,30.17,10.0,South,10.4,-,N/A,,Clear,180,2013-01-19 02:51:00
9:51 PM,45.0,25.0,46,30.16,10.0,SSW,13.8,-,N/A,,Clear,200,2013-01-19 03:51:00
10:51 PM,43.0,26.1,51,30.16,10.0,SSW,11.5,-,N/A,,Clear,210,2013-01-19 04:51:00
11:51 PM,42.1,26.1,53,30.16,10.0,SSW,9.2,-,N/A,,Clear,210,2013-01-19 05:51:00